When you browse on this site, cookies collect data to enhance your experience and personalize the content and advertising you see.
Visit our Privacy Policy to learn more. By continuing to use the site, you agree to this use of cookies and data.
  • In Latvia
  • List of Countries
  • For 7 days
  • Water Temperature
  • Weather Map
  • Weather Widgets
  • user-avatar
    Login

    Hourly Weather Uige

    Today, 18 October, Friday

    Time Temperature Precipitation Wind Pressure Humidity
    00:00 +20°C° 0 mm 0 mps 691 mmHg 98%
    01:00 +20°C° 0 mm 0 mps 691 mmHg 98%
    02:00 +20°C° 1.3 mm 0 mps 691 mmHg 98%
    03:00 +20°C° 1.3 mm 0 mps 690 mmHg 98%
    04:00 +20°C° 1.3 mm 0 mps 690 mmHg 98%
    05:00 +20°C° 0.6 mm 0 mps 691 mmHg 97%
    06:00 +20°C° 0.6 mm 0 mps 691 mmHg 97%
    07:00 +21°C° 0 mm 0 mps 692 mmHg 96%
    08:00 +21°C° 1.1 mm 0 mps 691 mmHg 94%
    09:00 +24°C° 1.1 mm 1 mps 691 mmHg 93%
    10:00 +24°C° 1.1 mm 1 mps 691 mmHg 92%
    11:00 +26°C° 0.4 mm 1 mps 691 mmHg 87%
    12:00 +27°C° 0.4 mm 1 mps 691 mmHg 82%
    13:00 +27°C° 0 mm 1 mps 691 mmHg 78%
    14:00 +27°C° 1.5 mm 1 mps 690 mmHg 81%
    15:00 +26°C° 1.5 mm 1 mps 689 mmHg 83%
    16:00 +26°C° 1.5 mm 1 mps 689 mmHg 86%
    17:00 +25°C° 2.1 mm 1 mps 689 mmHg 88%
    18:00 +24°C° 2.1 mm 1 mps 690 mmHg 91%
    19:00 +21°C° 2.1 mm 0 mps 690 mmHg 93%
    20:00 +21°C° 0.3 mm 0 mps 690 mmHg 94%
    21:00 +20°C° 0.3 mm 0 mps 691 mmHg 95%
    22:00 +20°C° 0.3 mm 0 mps 691 mmHg 95%
    23:00 +20°C° 0 mm 0 mps 691 mmHg 96%

    Tomorrow, 19 October, Saturday

    Time Temperature Precipitation Wind Pressure Humidity
    00:00 +20°C° 0 mm 0 mps 691 mmHg 97%
    01:00 +20°C° 0 mm 0 mps 691 mmHg 98%
    02:00 +20°C° 0 mm 0 mps 690 mmHg 98%
    03:00 +22°C° 0 mm 1 mps 690 mmHg 98%
    04:00 +22°C° 0 mm 1 mps 690 mmHg 97%
    05:00 +23°C° 0 mm 1 mps 690 mmHg 97%
    06:00 +23°C° 0 mm 1 mps 691 mmHg 96%
    07:00 +23°C° 0 mm 1 mps 692 mmHg 96%
    08:00 +24°C° 0 mm 1 mps 692 mmHg 89%
    09:00 +25°C° 0 mm 1 mps 692 mmHg 83%
    10:00 +27°C° 0 mm 1 mps 692 mmHg 77%
    11:00 +28°C° 0.1 mm 1 mps 691 mmHg 73%
    12:00 +29°C° 0.1 mm 1 mps 691 mmHg 68%
    13:00 +30°C° 0.1 mm 1 mps 691 mmHg 64%
    14:00 +29°C° 1.7 mm 1 mps 690 mmHg 72%
    15:00 +27°C° 1.7 mm 1 mps 689 mmHg 79%
    16:00 +26°C° 1.7 mm 1 mps 688 mmHg 87%
    17:00 +25°C° 1.2 mm 1 mps 688 mmHg 89%
    18:00 +24°C° 1.2 mm 1 mps 689 mmHg 91%
    19:00 +21°C° 1.2 mm 0 mps 690 mmHg 93%
    20:00 +21°C° 0.6 mm 0 mps 690 mmHg 94%
    21:00 +21°C° 0.6 mm 0 mps 690 mmHg 95%
    22:00 +20°C° 0.6 mm 0 mps 691 mmHg 96%
    23:00 +20°C° 0 mm 0 mps 691 mmHg 97%

    Day after tomorrow, 20 October, Sunday

    Time Temperature Precipitation Wind Pressure Humidity
    00:00 +20°C° 0 mm 0 mps 690 mmHg 98%
    01:00 +22°C° 0 mm 1 mps 690 mmHg 99%
    02:00 +22°C° 0.2 mm 1 mps 690 mmHg 98%
    03:00 +22°C° 0.2 mm 1 mps 690 mmHg 98%
    04:00 +22°C° 0.2 mm 1 mps 690 mmHg 98%
    05:00 +22°C° 0 mm 1 mps 691 mmHg 97%
    06:00 +22°C° 0 mm 1 mps 691 mmHg 97%
    07:00 +23°C° 0 mm 1 mps 692 mmHg 96%
    08:00 +23°C° 0 mm 1 mps 692 mmHg 93%
    09:00 +24°C° 0 mm 1 mps 692 mmHg 89%
    10:00 +25°C° 0 mm 1 mps 692 mmHg 86%
    11:00 +25°C° 0.1 mm 1 mps 691 mmHg 83%
    12:00 +26°C° 0.1 mm 1 mps 690 mmHg 81%
    13:00 +26°C° 0.1 mm 1 mps 690 mmHg 78%
    14:00 +26°C° 0.1 mm 1 mps 689 mmHg 78%
    15:00 +26°C° 0.1 mm 1 mps 689 mmHg 78%
    16:00 +27°C° 0.1 mm 1 mps 689 mmHg 77%
    17:00 +25°C° 0 mm 1 mps 689 mmHg 83%
    18:00 +24°C° 0 mm 1 mps 689 mmHg 88%
    19:00 +21°C° 0 mm 0 mps 690 mmHg 94%
    20:00 +20°C° 0 mm 0 mps 690 mmHg 94%
    21:00 +20°C° 0 mm 0 mps 691 mmHg 95%
    22:00 +20°C° 0 mm 0 mps 691 mmHg 95%
    23:00 +20°C° 0 mm 0 mps 691 mmHg 96%

    21 October, Monday

    Time Temperature Precipitation Wind Pressure Humidity
    00:00 +19°C° 0 mm 0 mps 691 mmHg 96%
    01:00 +19°C° 0 mm 0 mps 690 mmHg 97%
    02:00 +19°C° 0 mm 0 mps 690 mmHg 97%
    03:00 +21°C° 0 mm 1 mps 690 mmHg 98%
    04:00 +21°C° 0 mm 1 mps 690 mmHg 98%
    05:00 +21°C° 0 mm 1 mps 690 mmHg 97%
    06:00 +22°C° 0 mm 1 mps 691 mmHg 95%
    07:00 +21°C° 0 mm 0 mps 691 mmHg 94%
    08:00 +24°C° 0 mm 1 mps 691 mmHg 89%
    09:00 +25°C° 0 mm 1 mps 692 mmHg 83%
    10:00 +26°C° 0 mm 1 mps 692 mmHg 78%
    11:00 +26°C° 0.1 mm 1 mps 691 mmHg 76%
    12:00 +27°C° 0.1 mm 1 mps 690 mmHg 74%
    13:00 +27°C° 0.1 mm 1 mps 690 mmHg 73%
    14:00 +28°C° 0.2 mm 1 mps 689 mmHg 72%
    15:00 +28°C° 0.2 mm 1 mps 689 mmHg 72%
    16:00 +28°C° 0.2 mm 1 mps 688 mmHg 72%
    17:00 +26°C° 0.6 mm 1 mps 689 mmHg 79%
    18:00 +25°C° 0.6 mm 1 mps 689 mmHg 86%
    19:00 +23°C° 0.6 mm 1 mps 689 mmHg 93%
    20:00 +21°C° 0.3 mm 0 mps 690 mmHg 94%
    21:00 +21°C° 0.3 mm 0 mps 690 mmHg 95%
    22:00 +20°C° 0.3 mm 0 mps 690 mmHg 96%
    23:00 +20°C° 0 mm 0 mps 690 mmHg 97%

    22 October, Tuesday

    Time Temperature Precipitation Wind Pressure Humidity
    00:00 +20°C° 0 mm 0 mps 690 mmHg 98%
    01:00 +20°C° 0 mm 0 mps 689 mmHg 98%
    02:00 +20°C° 0 mm 0 mps 689 mmHg 98%
    03:00 +22°C° 0 mm 1 mps 690 mmHg 98%
    04:00 +22°C° 0 mm 1 mps 690 mmHg 98%
    05:00 +22°C° 0.1 mm 1 mps 690 mmHg 98%
    06:00 +22°C° 0.1 mm 1 mps 690 mmHg 98%
    07:00 +22°C° 0.1 mm 1 mps 691 mmHg 98%
    08:00 +23°C° 0.1 mm 1 mps 691 mmHg 95%
    09:00 +24°C° 0.1 mm 1 mps 691 mmHg 91%
    10:00 +25°C° 0.1 mm 1 mps 691 mmHg 88%
    11:00 +25°C° 0.2 mm 2 mps 691 mmHg 86%
    12:00 +25°C° 0.2 mm 2 mps 690 mmHg 83%
    13:00 +26°C° 0.2 mm 2 mps 689 mmHg 80%
    14:00 +26°C° 0.1 mm 2 mps 689 mmHg 79%
    15:00 +26°C° 0.1 mm 2 mps 688 mmHg 78%
    16:00 +27°C° 0.1 mm 2 mps 688 mmHg 77%
    17:00 +25°C° 0.4 mm 1 mps 688 mmHg 83%
    18:00 +24°C° 0.4 mm 1 mps 689 mmHg 90%
    19:00 +22°C° 0.4 mm 1 mps 689 mmHg 96%
    20:00 +22°C° 0 mm 1 mps 689 mmHg 97%
    21:00 +22°C° 0 mm 1 mps 690 mmHg 97%
    22:00 +22°C° 0 mm 1 mps 690 mmHg 98%
    23:00 +22°C° 0 mm 1 mps 690 mmHg 98%

    23 October, Wednesday

    Time Temperature Precipitation Wind Pressure Humidity
    00:00 +20°C° 0 mm 0 mps 690 mmHg 98%
    01:00 +20°C° 0 mm 0 mps 689 mmHg 97%
    02:00 +20°C° 0.1 mm 0 mps 689 mmHg 97%
    03:00 +22°C° 0.1 mm 1 mps 689 mmHg 97%
    04:00 +22°C° 0.1 mm 1 mps 689 mmHg 97%
    05:00 +22°C° 0.4 mm 1 mps 689 mmHg 97%
    06:00 +22°C° 0.4 mm 1 mps 690 mmHg 97%
    07:00 +22°C° 0.4 mm 1 mps 690 mmHg 97%
    08:00 +23°C° 0 mm 1 mps 690 mmHg 91%
    09:00 +24°C° 0 mm 1 mps 690 mmHg 85%
    10:00 +26°C° 0 mm 1 mps 690 mmHg 80%
    11:00 +27°C° 0.1 mm 2 mps 690 mmHg 75%
    12:00 +28°C° 0.1 mm 2 mps 689 mmHg 70%
    13:00 +29°C° 0.1 mm 2 mps 689 mmHg 65%
    14:00 +29°C° 0.8 mm 2 mps 688 mmHg 67%
    15:00 +28°C° 0.8 mm 2 mps 688 mmHg 70%
    16:00 +28°C° 0.8 mm 1 mps 687 mmHg 72%
    17:00 +27°C° 0.2 mm 1 mps 688 mmHg 78%
    18:00 +25°C° 0.2 mm 1 mps 688 mmHg 83%
    19:00 +23°C° 0.2 mm 1 mps 688 mmHg 89%
    20:00 +23°C° 0.1 mm 1 mps 689 mmHg 91%
    21:00 +22°C° 0.1 mm 1 mps 689 mmHg 93%
    22:00 +22°C° 0.1 mm 1 mps 690 mmHg 96%
    23:00 +22°C° 0.1 mm 1 mps 690 mmHg 96%
    Show more